Weather History for Chicago Lansing, IL

Change the Weather History Date:

Monday, May 27, 2013

  Actual Average (KMDW) Record (KMDW)
Temperature  
Mean Temperature 59 °F 64 °F  
Max Temperature 64 °F 74 °F 97 °F (2012)
Min Temperature 55 °F 55 °F 35 °F (1961)
Degree Days  
Heating Degree Days 6 4  
Month to date heating degree days 176  
Since 1 July heating degree days 5947  
Cooling Degree Days 0 3  
Month to date cooling degree days 48  
Year to date cooling degree days 61  
Growing Degree Days 9 (Base 50)    
Moisture  
Dew Point 57 °F    
Average Humidity 91    
Maximum Humidity 96    
Minimum Humidity 81    
Precipitation  
Precipitation 0.19 in 0.13 in 1.49 in (1973)
Month to date precipitation 3.55  
Year to date precipitation 13.91  
Sea Level Pressure  
Sea Level Pressure 29.99 in    
Wind  
Wind Speed 8 mph (ESE)    
Max Wind Speed 15 mph    
Max Gust Speed 21 mph    
Visibility 8 miles    
Events Rain , Thunderstorm    
T = Trace of Precipitation, MM = Missing Value Source: NWS Daily Summary

Daily Weather History Graph

Daily Weather History Graph

Search for Another Location

Airport:

Trip Planner

Search our weather history database for the weather conditions in past years. The results will help you decide how hot, cold, wet, or windy it might be!

Date:

Astronomy

May. 27, 2013 Rise Set
Actual Time 5:21 AM CDT 8:14 PM CDT
Civil Twilight 4:48 AM CDT 8:46 PM CDT
Nautical Twilight 4:06 AM CDT 9:28 PM CDT
Astronomical Twilight 3:18 AM CDT 10:16 PM CDT
Moon 10:52 PM CDT 7:58 AM CDT
Length of Visible Light 15h 58m
Length of Day
14h 52m
Waning Gibbous, 91% of the Moon is Illuminated
May 27
Waning Gibbous
May 31
Last Quarter
Jun 8
New
Jun 16
First Quarter
Jun 23
Full

Hourly Weather History & Observations

Time (CDT) Temp. Dew Point Humidity Pressure Visibility Wind Dir Wind Speed Gust Speed Precip Events Conditions
12:15 AM 56.3 °F 53.6 °F 91% 30.15 in 10.0 mi East 5.8 mph - N/A   Overcast
12:35 AM 56.3 °F 53.6 °F 91% 30.15 in 10.0 mi ESE 6.9 mph - N/A   Overcast
12:55 AM 56.3 °F 53.6 °F 91% 30.14 in 10.0 mi ESE 5.8 mph - N/A   Overcast
1:15 AM 56.3 °F 53.6 °F 91% 30.13 in 10.0 mi ESE 5.8 mph - N/A   Overcast
1:35 AM 56.5 °F 53.6 °F 90% 30.12 in 10.0 mi SE 5.8 mph - N/A   Overcast
1:55 AM 56.7 °F 53.6 °F 89% 30.12 in 10.0 mi ESE 6.9 mph - N/A   Overcast
2:15 AM 56.7 °F 53.6 °F 89% 30.12 in 7.0 mi ESE 8.1 mph - N/A Rain Light Rain
2:35 AM 56.7 °F 53.8 °F 90% 30.11 in 7.0 mi SE 9.2 mph - N/A Rain Light Rain
2:55 AM 56.5 °F 54.1 °F 92% 30.10 in 7.0 mi SE 10.4 mph - N/A Rain Light Rain
3:15 AM 56.3 °F 54.1 °F 92% 30.10 in 7.0 mi SE 10.4 mph - N/A Rain Light Rain
3:35 AM 56.3 °F 54.5 °F 94% 30.09 in 7.0 mi SE 10.4 mph 17.3 mph N/A Rain Light Rain
3:55 AM 56.3 °F 54.5 °F 94% 30.09 in 5.0 mi SE 10.4 mph - 0.02 in Rain Rain
4:15 AM 56.3 °F 54.5 °F 94% 30.08 in 5.0 mi SE 9.2 mph - 0.01 in Rain Rain
4:35 AM 56.3 °F 54.5 °F 94% 30.07 in 5.0 mi SE 9.2 mph - 0.02 in Rain Rain
4:55 AM 56.3 °F 54.9 °F 95% 30.06 in 5.0 mi SE 10.4 mph - 0.04 in Rain Rain
5:15 AM 56.5 °F 55.0 °F 95% 30.06 in 7.0 mi SE 11.5 mph 16.1 mph 0.01 in Rain Light Rain
5:35 AM 56.5 °F 55.0 °F 95% 30.06 in 7.0 mi SE 12.7 mph - 0.02 in Rain Light Rain
5:55 AM 56.7 °F 55.0 °F 94% 30.05 in 5.0 mi SE 10.4 mph 17.3 mph 0.02 in Rain Rain
6:15 AM 56.5 °F 54.9 °F 94% 30.06 in 7.0 mi ESE 9.2 mph 18.4 mph N/A Rain Light Rain
6:35 AM 56.3 °F 54.9 °F 95% 30.06 in 5.0 mi ESE 10.4 mph - N/A Rain Rain
6:55 AM 56.3 °F 54.7 °F 94% 30.05 in 7.0 mi ESE 9.2 mph - 0.02 in Rain Light Rain
7:15 AM 56.3 °F 54.9 °F 95% 30.05 in 5.0 mi SE 11.5 mph 17.3 mph 0.01 in Rain Light Rain
7:35 AM 56.3 °F 54.7 °F 94% 30.05 in 5.0 mi SE 10.4 mph - 0.03 in Rain Heavy Rain
7:55 AM 55.9 °F 54.5 °F 95% 30.05 in 5.0 mi SE 10.4 mph 16.1 mph 0.08 in Rain Light Rain
8:15 AM 56.3 °F 54.9 °F 95% 30.05 in 5.0 mi SE 11.5 mph - N/A Rain Rain
8:35 AM 56.3 °F 54.7 °F 94% 30.04 in 4.0 mi SE 8.1 mph 19.6 mph 0.01 in Rain Rain
8:55 AM 56.5 °F 54.7 °F 94% 30.04 in 7.0 mi SE 10.4 mph - 0.01 in   Overcast
9:15 AM 56.3 °F 54.5 °F 94% 30.03 in 7.0 mi ESE 12.7 mph 18.4 mph N/A   Overcast
9:35 AM 56.7 °F 54.5 °F 92% 30.02 in 10.0 mi SE 12.7 mph 17.3 mph N/A   Overcast
9:55 AM 57.2 °F 54.5 °F 91% 30.04 in 10.0 mi SE 13.8 mph - N/A   Overcast
10:15 AM 57.4 °F 54.7 °F 91% 30.02 in 10.0 mi SE 10.4 mph 19.6 mph N/A   Overcast
10:35 AM 58.1 °F 54.9 °F 89% 30.01 in 10.0 mi SE 12.7 mph 17.3 mph N/A   Overcast
10:55 AM 59.2 °F 55.8 °F 88% 29.99 in 10.0 mi SE 15.0 mph - N/A Rain Light Rain
11:15 AM 59.2 °F 55.8 °F 88% 29.99 in 10.0 mi SE 13.8 mph 18.4 mph N/A Rain Light Rain
11:35 AM 59.9 °F 56.3 °F 88% 29.99 in 10.0 mi SE 12.7 mph 18.4 mph N/A   Overcast
11:55 AM 61.9 °F 57.2 °F 85% 29.98 in 10.0 mi SE 13.8 mph - N/A   Overcast
12:15 PM 63.9 °F 58.1 °F 81% 29.98 in 10.0 mi SE 11.5 mph 20.7 mph N/A   Overcast
12:35 PM 62.6 °F 56.7 °F 81% 29.98 in 10.0 mi SE 11.5 mph - N/A   Overcast
12:55 PM 62.8 °F 56.8 °F 81% 29.98 in 10.0 mi SSE 11.5 mph - N/A   Overcast
1:15 PM 63.0 °F 57.2 °F 81% 29.99 in 10.0 mi SSE 9.2 mph - N/A   Overcast
1:35 PM 62.6 °F 56.7 °F 81% 29.98 in 10.0 mi SE 8.1 mph - N/A   Overcast
1:55 PM 61.3 °F 57.2 °F 86% 29.99 in 10.0 mi SSE 5.8 mph - N/A Rain Rain
2:15 PM 61.2 °F 58.5 °F 91% 29.98 in 5.0 mi SE 5.8 mph - N/A Rain Rain
2:35 PM 61.7 °F 59.4 °F 92% 29.97 in 3.0 mi ESE 6.9 mph - N/A   Overcast
2:55 PM 61.2 °F 58.5 °F 91% 29.96 in 10.0 mi ESE 5.8 mph - N/A   Overcast
3:15 PM 61.5 °F 58.5 °F 90% 29.94 in 10.0 mi East 11.5 mph - N/A   Overcast
3:35 PM 61.9 °F 58.8 °F 90% 29.94 in 10.0 mi ESE 11.5 mph - N/A   Overcast
3:55 PM 62.1 °F 58.6 °F 89% 29.92 in 10.0 mi ESE 11.5 mph - N/A   Overcast
4:15 PM 62.1 °F 58.8 °F 89% 29.92 in 10.0 mi ESE 9.2 mph - N/A   Overcast
4:35 PM 62.2 °F 59.0 °F 89% 29.92 in 10.0 mi SE 9.2 mph - N/A   Overcast
4:55 PM 62.8 °F 59.2 °F 88% 29.91 in 10.0 mi ESE 8.1 mph - N/A Thunderstorm Overcast
5:15 PM 62.8 °F 59.0 °F 87% 29.90 in 10.0 mi ESE 5.8 mph - N/A   Overcast
5:35 PM 62.6 °F 59.2 °F 89% 29.88 in 10.0 mi East 10.4 mph - N/A   Overcast
5:55 PM 62.6 °F 59.2 °F 89% 29.88 in 10.0 mi East 8.1 mph - N/A   Overcast
6:15 PM 62.6 °F 59.2 °F 89% 29.88 in 10.0 mi East 6.9 mph - N/A   Overcast
6:35 PM 62.2 °F 59.0 °F 89% 29.87 in 10.0 mi ESE 11.5 mph - N/A   Overcast
6:55 PM 62.2 °F 59.0 °F 89% 29.88 in 10.0 mi ESE 5.8 mph - N/A   Overcast
7:15 PM 62.1 °F 59.0 °F 90% 29.88 in 10.0 mi East 4.6 mph - N/A   Overcast
7:35 PM 62.1 °F 59.0 °F 90% 29.89 in 10.0 mi East 4.6 mph - N/A   Overcast
7:55 PM 61.7 °F 58.6 °F 90% 29.89 in 10.0 mi ESE 5.8 mph - N/A   Overcast
8:15 PM 61.0 °F 58.1 °F 90% 29.89 in 10.0 mi East 6.9 mph - N/A   Overcast
8:35 PM 61.0 °F 58.1 °F 90% 29.87 in 10.0 mi East 6.9 mph - N/A   Overcast
8:55 PM 60.1 °F 57.6 °F 91% 29.86 in 10.0 mi East 6.9 mph - N/A   Mostly Cloudy
9:15 PM 60.3 °F 57.9 °F 92% 29.87 in 10.0 mi SE 5.8 mph - N/A   Mostly Cloudy
9:35 PM 60.1 °F 57.9 °F 93% 29.88 in 7.0 mi ESE 5.8 mph - N/A   Overcast
9:55 PM 60.1 °F 58.1 °F 93% 29.88 in 7.0 mi East 5.8 mph - N/A   Overcast
10:15 PM 60.1 °F 58.1 °F 93% 29.88 in 5.0 mi East 3.5 mph - N/A   Overcast
10:35 PM 60.1 °F 58.3 °F 94% 29.88 in 5.0 mi ESE 3.5 mph - N/A   Overcast
10:55 PM 60.3 °F 58.6 °F 94% 29.87 in 4.0 mi ESE 5.8 mph - N/A Rain Light Rain
11:15 PM 60.3 °F 59.0 °F 96% 29.87 in 3.0 mi SE 3.5 mph - N/A Thunderstorm Overcast
11:35 PM 60.8 °F 59.4 °F 95% 29.91 in 3.0 mi West 5.8 mph - N/A Thunderstorm Overcast
11:55 PM 60.8 °F 59.4 °F 95% 29.90 in 2.5 mi SSW 4.6 mph - N/A Rain , Thunderstorm Light Thunderstorms and Rain